| time (UTC) | temp C | wind direction | speed KPH | gust KPH | rain 1hr cm | rain 24hr cm | rain mn cm | humidity % | barometer mb |
| 20260504130503 | 11 | 238 | 6.4 | 16.1 | 0.00 | 0.00 | 0.00 | 46 | 1012.2 |
| 20260504110503 | 4 | 228 | 1.6 | 9.7 | 0.00 | 0.00 | 0.00 | 67 | 1012.2 |
| 20260504100503 | 1 | 270 | 0.0 | 3.2 | 0.00 | 0.00 | 0.00 | 75 | 1012.1 |
| 20260504082003 | 4 | 338 | 1.6 | 3.2 | 0.00 | 0.00 | 0.00 | 63 | 1012.3 |
| 20260504081503 | 4 | 331 | 1.6 | 3.2 | 0.00 | 0.00 | 0.00 | 63 | 1012.5 |
| 20260504081003 | 4 | 342 | 1.6 | 4.8 | 0.00 | 0.00 | 0.00 | 63 | 1012.5 |
| 20260504080503 | 4 | 350 | 1.6 | 6.4 | 0.00 | 0.00 | 0.00 | 63 | 1012.5 |
| 20260504050503 | 6 | 271 | 3.2 | 11.3 | 0.00 | 0.00 | 0.00 | 57 | 1012.0 |
| 20260504050003 | 6 | 275 | 3.2 | 9.7 | 0.00 | 0.00 | 0.00 | 57 | 1012.0 |
| 20260504045524 | 6 | 263 | 3.2 | 14.5 | 0.00 | 0.00 | 0.00 | 57 | 1012.0 |
| 20260504045003 | 6 | 267 | 3.2 | 14.5 | 0.00 | 0.00 | 0.00 | 58 | 1011.9 |
| 20260504044504 | 6 | 278 | 3.2 | 11.3 | 0.00 | 0.00 | 0.00 | 58 | 1011.8 |
| 20260504044024 | 6 | 287 | 3.2 | 11.3 | 0.00 | 0.00 | 0.00 | 58 | 1011.8 |
| 20260504043503 | 6 | 284 | 1.6 | 9.7 | 0.00 | 0.00 | 0.00 | 58 | 1011.9 |
| 20260504043024 | 6 | 266 | 1.6 | 9.7 | 0.00 | 0.00 | 0.00 | 58 | 1011.8 |
| 20260504042503 | 6 | 277 | 3.2 | 11.3 | 0.00 | 0.00 | 0.00 | 58 | 1011.8 |
| 20260504042003 | 5 | 281 | 3.2 | 11.3 | 0.00 | 0.00 | 0.00 | 59 | 1011.7 |
| 20260504041503 | 5 | 269 | 1.6 | 11.3 | 0.00 | 0.00 | 0.00 | 59 | 1011.7 |
| 20260504041003 | 5 | 291 | 1.6 | 11.3 | 0.00 | 0.00 | 0.00 | 60 | 1011.8 |
| 20260504040524 | 5 | 315 | 1.6 | 6.4 | 0.00 | 0.00 | 0.00 | 60 | 1011.7 |
| 20260504040003 | 5 | 302 | 1.6 | 6.4 | 0.00 | 0.00 | 0.00 | 60 | 1011.6 |
| 20260504035524 | 5 | 299 | 1.6 | 6.4 | 0.00 | 0.00 | 0.00 | 59 | 1011.7 |
| 20260504035003 | 5 | 308 | 1.6 | 6.4 | 0.00 | 0.00 | 0.00 | 58 | 1011.4 |
| 20260504034503 | 5 | 322 | 1.6 | 4.8 | 0.00 | 0.00 | 0.00 | 58 | 1011.6 |
| 20260504034003 | 5 | 325 | 1.6 | 4.8 | 0.00 | 0.00 | 0.00 | 58 | 1011.3 |
| 20260504033503 | 5 | 303 | 1.6 | 4.8 | 0.00 | 0.00 | 0.00 | 57 | 1011.4 |
| 20260504033003 | 6 | 297 | 1.6 | 6.4 | 0.00 | 0.00 | 0.00 | 58 | 1011.3 |
| 20260504032503 | 5 | 307 | 1.6 | 6.4 | 0.00 | 0.00 | 0.00 | 58 | 1011.5 |
| 20260504032003 | 5 | 277 | 1.6 | 6.4 | 0.00 | 0.00 | 0.00 | 59 | 1011.6 |
| 20260504031503 | 5 | 230 | 1.6 | 9.7 | 0.00 | 0.00 | 0.00 | 58 | 1011.7 |
| 20260504031003 | 5 | 252 | 1.6 | 9.7 | 0.00 | 0.00 | 0.00 | 58 | 1011.6 |
| 20260504030503 | 5 | 318 | 0.0 | 3.2 | 0.00 | 0.00 | 0.00 | 58 | 1011.4 |
| 20260504030024 | 5 | 287 | 0.0 | 3.2 | 0.00 | 0.00 | 0.00 | 59 | 1011.5 |
| 20260504025503 | 5 | 279 | 0.0 | 3.2 | 0.00 | 0.00 | 0.00 | 59 | 1011.6 |
| 20260504025003 | 5 | 259 | 0.0 | 3.2 | 0.00 | 0.00 | 0.00 | 59 | 1011.6 |
| 20260504024503 | 5 | 244 | 0.0 | 3.2 | 0.00 | 0.00 | 0.00 | 59 | 1011.6 |
| 20260504024003 | 5 | 243 | 0.0 | 3.2 | 0.00 | 0.00 | 0.00 | 58 | 1011.6 |
| 20260504023503 | 5 | 266 | 0.0 | 4.8 | 0.00 | 0.00 | 0.00 | 58 | 1011.6 |
| 20260504023003 | 5 | 271 | 0.0 | 4.8 | 0.00 | 0.00 | 0.00 | 58 | 1011.6 |
| 20260504022503 | 5 | 239 | 0.0 | 3.2 | 0.00 | 0.00 | 0.00 | 58 | 1011.6 |
| 20260504022003 | 5 | 214 | 0.0 | 3.2 | 0.00 | 0.00 | 0.00 | 57 | 1011.7 |
| 20260504021524 | 5 | 241 | 0.0 | 3.2 | 0.00 | 0.00 | 0.00 | 57 | 1011.7 |
| 20260504021024 | 5 | 241 | 0.0 | 3.2 | 0.00 | 0.00 | 0.00 | 57 | 1011.8 |
| 20260504020503 | 5 | 0 | 0.0 | 0.0 | 0.00 | 0.00 | 0.00 | 57 | 1011.6 |
| 20260504020003 | 5 | 0 | 0.0 | 0.0 | 0.00 | 0.00 | 0.00 | 57 | 1011.6 |
| 20260504015524 | 6 | 250 | 0.0 | 3.2 | 0.00 | 0.00 | 0.00 | 56 | 1011.6 |
| 20260504015003 | 6 | 250 | 0.0 | 4.8 | 0.00 | 0.00 | 0.00 | 56 | 1011.6 |
| 20260504014503 | 6 | 250 | 0.0 | 4.8 | 0.00 | 0.00 | 0.00 | 55 | 1011.6 |
| 20260504014003 | 6 | 112 | 0.0 | 1.6 | 0.00 | 0.00 | 0.00 | 54 | 1011.5 |
| 20260504013524 | 6 | 207 | 0.0 | 3.2 | 0.00 | 0.00 | 0.00 | 53 | 1011.4 |
| 20260504013003 | 6 | 222 | 1.6 | 4.8 | 0.00 | 0.00 | 0.00 | 53 | 1011.2 |
| 20260504012503 | 6 | 226 | 1.6 | 4.8 | 0.00 | 0.00 | 0.00 | 53 | 1011.4 |
| 20260504012003 | 6 | 240 | 0.0 | 3.2 | 0.00 | 0.00 | 0.00 | 52 | 1011.4 |
| 20260504011503 | 6 | 249 | 0.0 | 4.8 | 0.00 | 0.00 | 0.00 | 52 | 1011.5 |
| 20260504011003 | 7 | 253 | 0.0 | 4.8 | 0.00 | 0.00 | 0.00 | 51 | 1011.3 |
| 20260504010503 | 7 | 267 | 0.0 | 3.2 | 0.00 | 0.00 | 0.00 | 51 | 1011.3 |
| 20260504010003 | 7 | 254 | 0.0 | 3.2 | 0.00 | 0.00 | 0.00 | 50 | 1011.2 |
| 20260504005524 | 7 | 239 | 0.0 | 3.2 | 0.00 | 0.00 | 0.00 | 50 | 1011.1 |
| 20260504005003 | 7 | 238 | 1.6 | 11.3 | 0.00 | 0.00 | 0.00 | 50 | 1011.2 |
| 20260504004524 | 7 | 243 | 1.6 | 11.3 | 0.00 | 0.00 | 0.00 | 49 | 1011.0 |
| 20260504004003 | 8 | 303 | 0.0 | 4.8 | 0.00 | 0.00 | 0.00 | 48 | 1011.2 |
| 20260504003503 | 8 | 249 | 1.6 | 14.5 | 0.00 | 0.00 | 0.00 | 48 | 1011.0 |
| 20260504003003 | 8 | 242 | 1.6 | 14.5 | 0.00 | 0.00 | 0.00 | 48 | 1011.0 |
| 20260504002503 | 8 | 257 | 1.6 | 6.4 | 0.00 | 0.00 | 0.00 | 47 | 1010.9 |
| 20260504002024 | 8 | 270 | 1.6 | 6.4 | 0.00 | 0.00 | 0.00 | 47 | 1011.0 |
| 20260504001503 | 8 | 266 | 1.6 | 9.7 | 0.00 | 0.00 | 0.00 | 47 | 1011.0 |
| 20260504001003 | 8 | 246 | 1.6 | 9.7 | 0.00 | 0.00 | 0.00 | 47 | 1010.6 |
| 20260504000503 | 8 | 243 | 0.0 | 6.4 | 0.00 | 0.00 | 0.00 | 47 | 1011.0 |
| 20260504000003 | 8 | 266 | 0.0 | 3.2 | 0.00 | 0.00 | 0.00 | 47 | 1010.8 |
| 20260503235524 | 8 | 280 | 0.0 | 3.2 | 0.00 | 0.00 | 0.00 | 47 | 1010.7 |
| 20260503235003 | 9 | 303 | 1.6 | 6.4 | 0.00 | 0.00 | 0.00 | 46 | 1010.5 |
| 20260503234524 | 9 | 286 | 1.6 | 6.4 | 0.00 | 0.00 | 0.00 | 45 | 1010.7 |
| 20260503234008 | 9 | 280 | 3.2 | 14.5 | 0.00 | 0.00 | 0.00 | 44 | 1010.4 |
| 20260503233503 | 9 | 296 | 3.2 | 14.5 | 0.00 | 0.00 | 0.00 | 43 | 1010.6 |
| 20260503233003 | 10 | 275 | 3.2 | 14.5 | 0.00 | 0.00 | 0.00 | 44 | 1010.4 |
| 20260503232503 | 10 | 271 | 3.2 | 12.9 | 0.00 | 0.00 | 0.00 | 43 | 1010.4 |
| 20260503232003 | 10 | 277 | 1.6 | 12.9 | 0.00 | 0.00 | 0.00 | 42 | 1010.4 |
| 20260503231524 | 10 | 264 | 3.2 | 6.4 | 0.00 | 0.00 | 0.00 | 42 | 1010.4 |
| 20260503231003 | 10 | 271 | 3.2 | 11.3 | 0.00 | 0.00 | 0.00 | 42 | 1010.4 |
| 20260503230503 | 10 | 290 | 3.2 | 11.3 | 0.00 | 0.00 | 0.00 | 42 | 1010.4 |
| 20260503230003 | 10 | 271 | 4.8 | 12.9 | 0.00 | 0.00 | 0.00 | 42 | 1010.4 |
| 20260503225503 | 10 | 270 | 3.2 | 12.9 | 0.00 | 0.00 | 0.00 | 41 | 1010.3 |
| 20260503225003 | 10 | 277 | 3.2 | 9.7 | 0.00 | 0.00 | 0.00 | 41 | 1010.4 |
| 20260503224503 | 10 | 258 | 3.2 | 14.5 | 0.00 | 0.00 | 0.00 | 41 | 1010.3 |
| 20260503224003 | 11 | 261 | 4.8 | 20.9 | 0.00 | 0.00 | 0.00 | 40 | 1010.2 |
| 20260503223503 | 11 | 267 | 4.8 | 20.9 | 0.00 | 0.00 | 0.00 | 41 | 1010.1 |
| 20260503223003 | 11 | 286 | 3.2 | 16.1 | 0.00 | 0.00 | 0.00 | 40 | 1010.4 |
| 20260503222503 | 11 | 287 | 4.8 | 16.1 | 0.00 | 0.00 | 0.00 | 40 | 1010.4 |
| 20260503222003 | 11 | 278 | 6.4 | 14.5 | 0.00 | 0.00 | 0.00 | 39 | 1010.2 |
| 20260503221503 | 11 | 254 | 4.8 | 14.5 | 0.00 | 0.00 | 0.00 | 39 | 1010.2 |
| 20260503221003 | 11 | 271 | 4.8 | 14.5 | 0.00 | 0.00 | 0.00 | 39 | 1010.4 |
| 20260503220503 | 10 | 296 | 4.8 | 20.9 | 0.00 | 0.00 | 0.00 | 39 | 1010.2 |
| 20260503220024 | 10 | 308 | 4.8 | 20.9 | 0.00 | 0.00 | 0.00 | 39 | 1010.4 |
| 20260503215503 | 10 | 314 | 4.8 | 17.7 | 0.00 | 0.00 | 0.00 | 39 | 1010.3 |
| 20260503215003 | 11 | 290 | 6.4 | 17.7 | 0.00 | 0.00 | 0.00 | 37 | 1010.2 |
| 20260503214503 | 11 | 277 | 4.8 | 14.5 | 0.00 | 0.00 | 0.00 | 38 | 1010.3 |
| 20260503214003 | 11 | 289 | 6.4 | 20.9 | 0.00 | 0.00 | 0.00 | 37 | 1010.1 |
| 20260503213503 | 11 | 295 | 6.4 | 20.9 | 0.00 | 0.00 | 0.00 | 37 | 1009.9 |
| 20260503212503 | 11 | 287 | 4.8 | 17.7 | 0.00 | 0.00 | 0.00 | 36 | 1009.8 |
| 20260503212003 | 11 | 271 | 6.4 | 17.7 | 0.00 | 0.00 | 0.00 | 35 | 1010.0 |
| 20260503211003 | 11 | 280 | 6.4 | 14.5 | 0.00 | 0.00 | 0.00 | 35 | 1009.9 |
| 20260503210503 | 11 | 258 | 6.4 | 16.1 | 0.00 | 0.00 | 0.00 | 36 | 1009.8 |
| 20260503210003 | 11 | 257 | 6.4 | 24.1 | 0.00 | 0.00 | 0.00 | 36 | 1009.9 |
| 20260503205503 | 11 | 252 | 6.4 | 24.1 | 0.00 | 0.00 | 0.00 | 35 | 1009.8 |
| 20260503205003 | 12 | 257 | 6.4 | 20.9 | 0.00 | 0.00 | 0.00 | 34 | 1009.8 |
| 20260503204524 | 12 | 288 | 8.0 | 20.9 | 0.00 | 0.00 | 0.00 | 34 | 1009.8 |
| 20260503204003 | 12 | 306 | 8.0 | 20.9 | 0.00 | 0.00 | 0.00 | 35 | 1009.5 |
| 20260503203503 | 12 | 279 | 8.0 | 22.5 | 0.00 | 0.00 | 0.00 | 34 | 1010.0 |
| 20260503203003 | 12 | 282 | 8.0 | 25.7 | 0.00 | 0.00 | 0.00 | 35 | 1009.9 |
| 20260503202503 | 11 | 307 | 8.0 | 25.7 | 0.00 | 0.00 | 0.00 | 34 | 1009.9 |
| 20260503202003 | 11 | 275 | 6.4 | 25.7 | 0.00 | 0.00 | 0.00 | 36 | 1010.0 |
| 20260503201525 | 11 | 262 | 6.4 | 25.7 | 0.00 | 0.00 | 0.00 | 35 | 1009.9 |
| 20260503201003 | 11 | 265 | 6.4 | 20.9 | 0.00 | 0.00 | 0.00 | 32 | 1009.8 |
| 20260503200503 | 11 | 292 | 6.4 | 17.7 | 0.00 | 0.00 | 0.00 | 37 | 1009.9 |
| 20260503200003 | 11 | 286 | 8.0 | 25.7 | 0.00 | 0.00 | 0.00 | 36 | 1009.9 |
| 20260503195503 | 11 | 283 | 8.0 | 25.7 | 0.00 | 0.00 | 0.00 | 35 | 1010.2 |
| 20260503195003 | 11 | 303 | 6.4 | 22.5 | 0.00 | 0.00 | 0.00 | 35 | 1010.0 |
| 20260503194503 | 11 | 310 | 8.0 | 33.8 | 0.00 | 0.00 | 0.00 | 35 | 1010.3 |
| 20260503194003 | 11 | 311 | 9.7 | 33.8 | 0.00 | 0.00 | 0.00 | 35 | 1010.3 |
| 20260503193503 | 11 | 316 | 6.4 | 25.7 | 0.00 | 0.00 | 0.00 | 36 | 1010.4 |
| 20260503193003 | 11 | 313 | 6.4 | 22.5 | 0.00 | 0.00 | 0.00 | 36 | 1010.3 |
| 20260503192524 | 11 | 311 | 8.0 | 22.5 | 0.00 | 0.00 | 0.00 | 37 | 1010.4 |
| 20260503192003 | 10 | 309 | 9.7 | 24.1 | 0.00 | 0.00 | 0.00 | 37 | 1010.6 |
| 20260503191524 | 10 | 292 | 8.0 | 24.1 | 0.00 | 0.00 | 0.00 | 36 | 1010.5 |
| 20260503191003 | 10 | 257 | 8.0 | 29.0 | 0.00 | 0.00 | 0.00 | 36 | 1010.3 |
| 20260503190503 | 10 | 263 | 8.0 | 29.0 | 0.00 | 0.00 | 0.00 | 38 | 1010.5 |
| 20260503190024 | 10 | 285 | 6.4 | 24.1 | 0.00 | 0.00 | 0.00 | 39 | 1010.5 |
| 20260503185524 | 10 | 290 | 8.0 | 24.1 | 0.00 | 0.00 | 0.00 | 38 | 1010.6 |
| 20260503185003 | 10 | 289 | 8.0 | 24.1 | 0.00 | 0.00 | 0.00 | 38 | 1010.7 |
| 20260503184503 | 10 | 296 | 8.0 | 24.1 | 0.00 | 0.00 | 0.00 | 37 | 1010.9 |
| 20260503184003 | 10 | 290 | 8.0 | 24.1 | 0.00 | 0.00 | 0.00 | 36 | 1010.8 |
| 20260503183503 | 10 | 294 | 8.0 | 27.4 | 0.00 | 0.00 | 0.00 | 41 | 1010.8 |
| 20260503183024 | 10 | 297 | 8.0 | 27.4 | 0.00 | 0.00 | 0.00 | 38 | 1010.9 |
| 20260503182524 | 10 | 292 | 8.0 | 25.7 | 0.00 | 0.00 | 0.00 | 38 | 1010.9 |
| 20260503182003 | 10 | 296 | 8.0 | 24.1 | 0.00 | 0.00 | 0.00 | 39 | 1010.9 |
| 20260503181504 | 10 | 278 | 9.7 | 25.7 | 0.00 | 0.00 | 0.00 | 37 | 1010.7 |
| 20260503181003 | 10 | 265 | 8.0 | 25.7 | 0.00 | 0.00 | 0.00 | 39 | 1010.8 |
| 20260503180503 | 10 | 270 | 9.7 | 37.0 | 0.00 | 0.00 | 0.00 | 40 | 1010.9 |
| 20260503180003 | 10 | 276 | 9.7 | 37.0 | 0.00 | 0.00 | 0.00 | 39 | 1011.0 |
| 20260503175524 | 9 | 290 | 8.0 | 22.5 | 0.00 | 0.00 | 0.00 | 41 | 1011.2 |
| 20260503175003 | 9 | 289 | 8.0 | 25.7 | 0.00 | 0.00 | 0.00 | 38 | 1010.7 |
| 20260503174503 | 10 | 277 | 8.0 | 25.7 | 0.00 | 0.00 | 0.00 | 38 | 1011.0 |
| 20260503174003 | 9 | 294 | 6.4 | 24.1 | 0.00 | 0.00 | 0.00 | 42 | 1011.0 |
| 20260503173503 | 9 | 303 | 8.0 | 38.6 | 0.00 | 0.00 | 0.00 | 39 | 1011.1 |
| 20260503173003 | 8 | 278 | 6.4 | 38.6 | 0.00 | 0.00 | 0.00 | 43 | 1011.0 |
| 20260503172504 | 8 | 263 | 6.4 | 22.5 | 0.00 | 0.00 | 0.00 | 41 | 1011.0 |
| 20260503172003 | 9 | 279 | 8.0 | 22.5 | 0.00 | 0.00 | 0.00 | 41 | 1011.0 |
| 20260503171503 | 8 | 275 | 6.4 | 22.5 | 0.00 | 0.00 | 0.00 | 41 | 1011.1 |
| 20260503171003 | 8 | 266 | 6.4 | 17.7 | 0.00 | 0.00 | 0.00 | 42 | 1010.9 |
| 20260503170503 | 8 | 272 | 8.0 | 25.7 | 0.00 | 0.00 | 0.00 | 43 | 1011.1 |
| 20260503150503 | 5 | 270 | 4.8 | 17.7 | 0.00 | 0.00 | 0.00 | 57 | 1011.8 |